| time (UTC) | temp F | wind direction | speed MPH | gust MPH | rain 1hr in | rain 24hr in | rain mn in | humidity % | barometer mb |
| 20260509023959 | 58 | 5 | 2.0 | 9.0 | 0.00 | 0.00 | 0.00 | 79 | 1011.4 |
| 20260509023459 | 58 | 359 | 2.0 | 9.0 | 0.00 | 0.00 | 0.00 | 78 | 1011.4 |
| 20260509022958 | 58 | 333 | 2.0 | 8.0 | 0.00 | 0.00 | 0.00 | 78 | 1011.4 |
| 20260509022459 | 59 | 324 | 2.0 | 6.0 | 0.00 | 0.00 | 0.00 | 77 | 1011.3 |
| 20260509021959 | 59 | 331 | 1.0 | 6.0 | 0.00 | 0.00 | 0.00 | 76 | 1011.4 |
| 20260509021459 | 60 | 322 | 1.0 | 3.0 | 0.00 | 0.00 | 0.00 | 75 | 1011.2 |
| 20260509020959 | 60 | 323 | 0.0 | 3.0 | 0.00 | 0.00 | 0.00 | 74 | 1011.0 |
| 20260509020520 | 60 | 308 | 0.0 | 1.0 | 0.00 | 0.00 | 0.00 | 73 | 1010.9 |
| 20260509015959 | 60 | 308 | 0.0 | 1.0 | 0.00 | 0.00 | 0.00 | 73 | 1010.7 |
| 20260509015459 | 60 | 309 | 0.0 | 1.0 | 0.00 | 0.00 | 0.00 | 74 | 1010.6 |
| 20260509014959 | 61 | 309 | 0.0 | 1.0 | 0.00 | 0.00 | 0.00 | 71 | 1010.6 |
| 20260509014459 | 61 | 309 | 0.0 | 1.0 | 0.00 | 0.00 | 0.00 | 69 | 1010.5 |
| 20260509013959 | 61 | 309 | 0.0 | 1.0 | 0.00 | 0.00 | 0.00 | 68 | 1010.5 |
| 20260509013520 | 62 | 309 | 0.0 | 2.0 | 0.00 | 0.00 | 0.00 | 68 | 1010.5 |
| 20260509012959 | 62 | 307 | 1.0 | 2.0 | 0.00 | 0.00 | 0.00 | 66 | 1010.5 |
| 20260509012459 | 62 | 246 | 1.0 | 4.0 | 0.00 | 0.00 | 0.00 | 63 | 1010.6 |
| 20260509011959 | 62 | 205 | 2.0 | 11.0 | 0.00 | 0.00 | 0.00 | 60 | 1010.6 |
| 20260509011459 | 62 | 205 | 2.0 | 11.0 | 0.00 | 0.00 | 0.00 | 62 | 1010.7 |
| 20260509010959 | 61 | 239 | 1.0 | 8.0 | 0.00 | 0.00 | 0.00 | 62 | 1010.7 |
| 20260509010459 | 62 | 289 | 0.0 | 2.0 | 0.00 | 0.00 | 0.00 | 66 | 1010.8 |
| 20260509005959 | 62 | 289 | 0.0 | 2.0 | 0.00 | 0.00 | 0.00 | 65 | 1010.6 |
| 20260509005500 | 63 | 289 | 0.0 | 1.0 | 0.00 | 0.00 | 0.00 | 62 | 1010.5 |
| 20260509004959 | 63 | 289 | 0.0 | 1.0 | 0.00 | 0.00 | 0.00 | 61 | 1010.5 |
| 20260509004459 | 63 | 289 | 0.0 | 1.0 | 0.00 | 0.00 | 0.00 | 60 | 1010.4 |
| 20260509003959 | 63 | 289 | 0.0 | 1.0 | 0.00 | 0.00 | 0.00 | 58 | 1010.3 |
| 20260509003500 | 63 | 289 | 0.0 | 1.0 | 0.00 | 0.00 | 0.00 | 56 | 1010.2 |
| 20260509002959 | 64 | 289 | 0.0 | 1.0 | 0.00 | 0.00 | 0.00 | 56 | 1010.1 |
| 20260509002459 | 64 | 289 | 0.0 | 1.0 | 0.00 | 0.00 | 0.00 | 56 | 1010.1 |
| 20260509001959 | 64 | 289 | 0.0 | 1.0 | 0.00 | 0.00 | 0.00 | 55 | 1010.1 |
| 20260509001459 | 64 | 289 | 0.0 | 1.0 | 0.00 | 0.00 | 0.00 | 54 | 1010.1 |
| 20260509000959 | 64 | 289 | 0.0 | 1.0 | 0.00 | 0.00 | 0.00 | 54 | 1010.2 |
| 20260509000459 | 65 | 289 | 0.0 | 1.0 | 0.00 | 0.00 | 0.00 | 53 | 1010.4 |
| 20260509000020 | 65 | 277 | 0.0 | 2.0 | 0.00 | 0.00 | 0.00 | 54 | 1010.5 |
| 20260508235459 | 65 | 265 | 0.0 | 2.0 | 0.00 | 0.00 | 0.00 | 57 | 1010.3 |
| 20260508235000 | 65 | 236 | 0.0 | 1.0 | 0.00 | 0.00 | 0.00 | 54 | 1010.2 |
| 20260508234459 | 65 | 236 | 0.0 | 2.0 | 0.00 | 0.00 | 0.00 | 55 | 1010.2 |
| 20260508233959 | 65 | 236 | 0.0 | 2.0 | 0.00 | 0.00 | 0.00 | 53 | 1010.1 |
| 20260508233459 | 66 | 236 | 0.0 | 2.0 | 0.00 | 0.00 | 0.00 | 53 | 1010.1 |
| 20260508233020 | 66 | 236 | 0.0 | 2.0 | 0.00 | 0.00 | 0.00 | 52 | 1010.0 |
| 20260508232459 | 66 | 236 | 0.0 | 2.0 | 0.00 | 0.00 | 0.00 | 55 | 1010.1 |
| 20260508232020 | 66 | 236 | 0.0 | 3.0 | 0.00 | 0.00 | 0.00 | 51 | 1010.1 |
| 20260508231459 | 66 | 236 | 0.0 | 3.0 | 0.00 | 0.00 | 0.00 | 51 | 1010.3 |
| 20260508230959 | 66 | 235 | 1.0 | 3.0 | 0.00 | 0.00 | 0.00 | 50 | 1010.3 |
| 20260508230520 | 66 | 233 | 0.0 | 3.0 | 0.00 | 0.00 | 0.00 | 51 | 1010.2 |
| 20260508230020 | 66 | 231 | 0.0 | 2.0 | 0.00 | 0.00 | 0.00 | 51 | 1010.1 |
| 20260508225459 | 67 | 231 | 0.0 | 2.0 | 0.00 | 0.00 | 0.00 | 49 | 1010.1 |
| 20260508224959 | 67 | 231 | 0.0 | 2.0 | 0.00 | 0.00 | 0.00 | 52 | 1010.1 |
| 20260508224459 | 67 | 241 | 0.0 | 2.0 | 0.00 | 0.00 | 0.00 | 49 | 1010.1 |
| 20260508223959 | 67 | 241 | 1.0 | 7.0 | 0.00 | 0.00 | 0.00 | 47 | 1009.9 |
| 20260508223459 | 68 | 238 | 2.0 | 7.0 | 0.00 | 0.00 | 0.00 | 46 | 1010.0 |
| 20260508222959 | 68 | 221 | 1.0 | 7.0 | 0.00 | 0.00 | 0.00 | 46 | 1010.0 |
| 20260508222459 | 68 | 210 | 1.0 | 8.0 | 0.00 | 0.00 | 0.00 | 47 | 1010.0 |
| 20260508222020 | 68 | 218 | 1.0 | 8.0 | 0.00 | 0.00 | 0.00 | 45 | 1009.9 |
| 20260508221459 | 68 | 187 | 1.0 | 6.0 | 0.00 | 0.00 | 0.00 | 46 | 1010.0 |
| 20260508221000 | 68 | 199 | 1.0 | 6.0 | 0.00 | 0.00 | 0.00 | 45 | 1010.0 |
| 20260508220459 | 68 | 249 | 1.0 | 5.0 | 0.00 | 0.00 | 0.00 | 45 | 1009.9 |
| 20260508215959 | 68 | 193 | 2.0 | 7.0 | 0.00 | 0.00 | 0.00 | 45 | 1009.9 |
| 20260508215459 | 68 | 152 | 2.0 | 8.0 | 0.00 | 0.00 | 0.00 | 45 | 1009.9 |
| 20260508214959 | 68 | 186 | 2.0 | 9.0 | 0.00 | 0.00 | 0.00 | 46 | 1009.9 |
| 20260508214500 | 68 | 217 | 3.0 | 9.0 | 0.00 | 0.00 | 0.00 | 43 | 1009.8 |
| 20260508213959 | 68 | 196 | 2.0 | 8.0 | 0.00 | 0.00 | 0.00 | 44 | 1009.8 |
| 20260508213500 | 68 | 196 | 2.0 | 8.0 | 0.00 | 0.00 | 0.00 | 43 | 1010.0 |
| 20260508212959 | 68 | 222 | 2.0 | 5.0 | 0.00 | 0.00 | 0.00 | 43 | 1010.1 |
| 20260508212459 | 68 | 207 | 2.0 | 8.0 | 0.00 | 0.00 | 0.00 | 45 | 1010.1 |
| 20260508211959 | 68 | 194 | 2.0 | 8.0 | 0.00 | 0.00 | 0.00 | 44 | 1010.1 |
| 20260508211459 | 68 | 191 | 2.0 | 8.0 | 0.00 | 0.00 | 0.00 | 43 | 1010.2 |
| 20260508210959 | 68 | 187 | 3.0 | 8.0 | 0.00 | 0.00 | 0.00 | 45 | 1010.2 |
| 20260508210521 | 68 | 185 | 2.0 | 7.0 | 0.00 | 0.00 | 0.00 | 43 | 1010.2 |
| 20260508205959 | 68 | 166 | 2.0 | 8.0 | 0.00 | 0.00 | 0.00 | 43 | 1010.4 |
| 20260508205459 | 68 | 152 | 3.0 | 8.0 | 0.00 | 0.00 | 0.00 | 42 | 1010.6 |
| 20260508204959 | 68 | 171 | 1.0 | 7.0 | 0.00 | 0.00 | 0.00 | 44 | 1010.7 |
| 20260508204459 | 68 | 200 | 1.0 | 4.0 | 0.00 | 0.00 | 0.00 | 46 | 1010.8 |
| 20260508204021 | 68 | 166 | 2.0 | 8.0 | 0.00 | 0.00 | 0.00 | 44 | 1010.9 |
| 20260508203520 | 68 | 175 | 2.0 | 8.0 | 0.00 | 0.00 | 0.00 | 43 | 1010.8 |
| 20260508202959 | 68 | 211 | 1.0 | 7.0 | 0.00 | 0.00 | 0.00 | 43 | 1010.9 |
| 20260508202500 | 68 | 236 | 2.0 | 4.0 | 0.00 | 0.00 | 0.00 | 43 | 1011.1 |
| 20260508201959 | 68 | 227 | 2.0 | 8.0 | 0.00 | 0.00 | 0.00 | 42 | 1011.2 |
| 20260508201520 | 68 | 173 | 1.0 | 8.0 | 0.00 | 0.00 | 0.00 | 42 | 1011.2 |
| 20260508201020 | 68 | 153 | 2.0 | 5.0 | 0.00 | 0.00 | 0.00 | 42 | 1011.3 |
| 20260508200459 | 68 | 211 | 2.0 | 12.0 | 0.00 | 0.00 | 0.00 | 44 | 1011.4 |
| 20260508195959 | 68 | 219 | 2.0 | 8.0 | 0.00 | 0.00 | 0.00 | 44 | 1011.4 |
| 20260508195500 | 68 | 202 | 2.0 | 7.0 | 0.00 | 0.00 | 0.00 | 44 | 1011.3 |
| 20260508194959 | 68 | 223 | 2.0 | 6.0 | 0.00 | 0.00 | 0.00 | 44 | 1011.4 |
| 20260508194520 | 68 | 244 | 2.0 | 6.0 | 0.00 | 0.00 | 0.00 | 43 | 1011.4 |
| 20260508193959 | 68 | 240 | 2.0 | 5.0 | 0.00 | 0.00 | 0.00 | 42 | 1011.5 |
| 20260508193500 | 68 | 224 | 3.0 | 8.0 | 0.00 | 0.00 | 0.00 | 41 | 1011.5 |
| 20260508192959 | 68 | 217 | 3.0 | 10.0 | 0.00 | 0.00 | 0.00 | 41 | 1011.6 |
| 20260508192520 | 68 | 230 | 3.0 | 10.0 | 0.00 | 0.00 | 0.00 | 42 | 1011.6 |
| 20260508192020 | 69 | 223 | 2.0 | 10.0 | 0.00 | 0.00 | 0.00 | 42 | 1011.5 |
| 20260508191500 | 69 | 222 | 2.0 | 8.0 | 0.00 | 0.00 | 0.00 | 41 | 1011.6 |
| 20260508190959 | 69 | 174 | 2.0 | 10.0 | 0.00 | 0.00 | 0.00 | 43 | 1011.8 |
| 20260508190459 | 70 | 158 | 2.0 | 10.0 | 0.00 | 0.00 | 0.00 | 41 | 1011.7 |
| 20260508190000 | 70 | 209 | 2.0 | 8.0 | 0.00 | 0.00 | 0.00 | 43 | 1011.9 |
| 20260508185500 | 70 | 243 | 3.0 | 9.0 | 0.00 | 0.00 | 0.00 | 40 | 1011.9 |
| 20260508185021 | 70 | 227 | 3.0 | 9.0 | 0.00 | 0.00 | 0.00 | 41 | 1012.1 |
| 20260508184520 | 70 | 201 | 3.0 | 7.0 | 0.00 | 0.00 | 0.00 | 42 | 1012.1 |
| 20260508184000 | 70 | 204 | 3.0 | 8.0 | 0.00 | 0.00 | 0.00 | 40 | 1012.1 |
| 20260508183500 | 70 | 207 | 3.0 | 11.0 | 0.00 | 0.00 | 0.00 | 40 | 1012.2 |
| 20260508182959 | 70 | 202 | 3.0 | 11.0 | 0.00 | 0.00 | 0.00 | 41 | 1012.3 |
| 20260508182459 | 69 | 230 | 3.0 | 12.0 | 0.00 | 0.00 | 0.00 | 43 | 1012.3 |
| 20260508181959 | 69 | 246 | 4.0 | 12.0 | 0.00 | 0.00 | 0.00 | 39 | 1012.7 |
| 20260508181500 | 69 | 236 | 4.0 | 12.0 | 0.00 | 0.00 | 0.00 | 42 | 1012.8 |
| 20260508180959 | 69 | 210 | 3.0 | 8.0 | 0.00 | 0.00 | 0.00 | 44 | 1012.8 |
| 20260508180459 | 69 | 218 | 3.0 | 7.0 | 0.00 | 0.00 | 0.00 | 44 | 1012.8 |
| 20260508180000 | 69 | 232 | 3.0 | 10.0 | 0.00 | 0.00 | 0.00 | 42 | 1012.9 |
| 20260508175459 | 70 | 217 | 3.0 | 10.0 | 0.00 | 0.00 | 0.00 | 44 | 1012.9 |
| 20260508175020 | 70 | 213 | 3.0 | 10.0 | 0.00 | 0.00 | 0.00 | 45 | 1013.1 |
| 20260508174459 | 69 | 178 | 3.0 | 10.0 | 0.00 | 0.00 | 0.00 | 46 | 1013.1 |
| 20260508174000 | 69 | 156 | 2.0 | 9.0 | 0.00 | 0.00 | 0.00 | 43 | 1013.2 |
| 20260508173459 | 68 | 190 | 2.0 | 8.0 | 0.00 | 0.00 | 0.00 | 46 | 1013.3 |
| 20260508173021 | 68 | 214 | 3.0 | 9.0 | 0.00 | 0.00 | 0.00 | 46 | 1013.3 |
| 20260508172500 | 68 | 246 | 4.0 | 9.0 | 0.00 | 0.00 | 0.00 | 44 | 1013.5 |
| 20260508172000 | 68 | 241 | 3.0 | 9.0 | 0.00 | 0.00 | 0.00 | 45 | 1013.5 |
| 20260508171459 | 68 | 221 | 4.0 | 11.0 | 0.00 | 0.00 | 0.00 | 44 | 1013.7 |
| 20260508170959 | 68 | 193 | 4.0 | 11.0 | 0.00 | 0.00 | 0.00 | 45 | 1013.8 |
| 20260508170459 | 68 | 183 | 3.0 | 10.0 | 0.00 | 0.00 | 0.00 | 47 | 1013.8 |
| 20260508170000 | 68 | 195 | 3.0 | 9.0 | 0.00 | 0.00 | 0.00 | 45 | 1013.9 |
| 20260508165459 | 68 | 197 | 3.0 | 7.0 | 0.00 | 0.00 | 0.00 | 45 | 1014.0 |
| 20260508164959 | 68 | 173 | 4.0 | 13.0 | 0.00 | 0.00 | 0.00 | 44 | 1014.2 |
| 20260508164500 | 68 | 169 | 4.0 | 13.0 | 0.00 | 0.00 | 0.00 | 45 | 1014.3 |
| 20260508164020 | 68 | 188 | 3.0 | 12.0 | 0.00 | 0.00 | 0.00 | 46 | 1014.4 |
| 20260508163459 | 68 | 174 | 4.0 | 14.0 | 0.00 | 0.00 | 0.00 | 48 | 1014.4 |
| 20260508162959 | 67 | 160 | 4.0 | 14.0 | 0.00 | 0.00 | 0.00 | 48 | 1014.5 |
| 20260508162459 | 68 | 162 | 4.0 | 12.0 | 0.00 | 0.00 | 0.00 | 47 | 1014.5 |
| 20260508161959 | 67 | 175 | 4.0 | 11.0 | 0.00 | 0.00 | 0.00 | 46 | 1014.7 |
| 20260508161459 | 67 | 195 | 3.0 | 11.0 | 0.00 | 0.00 | 0.00 | 47 | 1014.7 |
| 20260508161021 | 67 | 218 | 3.0 | 11.0 | 0.00 | 0.00 | 0.00 | 48 | 1014.7 |
| 20260508160459 | 66 | 255 | 4.0 | 11.0 | 0.00 | 0.00 | 0.00 | 47 | 1014.8 |
| 20260508160000 | 66 | 240 | 4.0 | 13.0 | 0.00 | 0.00 | 0.00 | 47 | 1014.8 |
| 20260508155500 | 66 | 192 | 3.0 | 13.0 | 0.00 | 0.00 | 0.00 | 47 | 1014.9 |
| 20260508154959 | 66 | 178 | 3.0 | 11.0 | 0.00 | 0.00 | 0.00 | 51 | 1015.0 |
| 20260508154500 | 65 | 215 | 4.0 | 16.0 | 0.00 | 0.00 | 0.00 | 51 | 1015.0 |
| 20260508154000 | 65 | 202 | 4.0 | 16.0 | 0.00 | 0.00 | 0.00 | 52 | 1015.1 |
| 20260508153520 | 65 | 182 | 3.0 | 12.0 | 0.00 | 0.00 | 0.00 | 50 | 1015.2 |
| 20260508153021 | 64 | 209 | 4.0 | 10.0 | 0.00 | 0.00 | 0.00 | 50 | 1015.3 |
| 20260508152459 | 64 | 190 | 4.0 | 12.0 | 0.00 | 0.00 | 0.00 | 49 | 1015.3 |
| 20260508152000 | 64 | 171 | 4.0 | 11.0 | 0.00 | 0.00 | 0.00 | 51 | 1015.4 |
| 20260508151459 | 64 | 204 | 3.0 | 11.0 | 0.00 | 0.00 | 0.00 | 51 | 1015.4 |
| 20260508151000 | 64 | 224 | 3.0 | 16.0 | 0.00 | 0.00 | 0.00 | 52 | 1015.5 |
| 20260508150500 | 64 | 233 | 3.0 | 16.0 | 0.00 | 0.00 | 0.00 | 51 | 1015.5 |
| 20260508145959 | 63 | 222 | 2.0 | 9.0 | 0.00 | 0.00 | 0.00 | 52 | 1015.5 |
| 20260508145500 | 62 | 230 | 3.0 | 11.0 | 0.00 | 0.00 | 0.00 | 55 | 1015.4 |
| 20260508144959 | 62 | 228 | 4.0 | 11.0 | 0.00 | 0.00 | 0.00 | 51 | 1015.5 |
| 20260508144459 | 62 | 205 | 3.0 | 9.0 | 0.00 | 0.00 | 0.00 | 51 | 1015.6 |
| 20260508144000 | 61 | 213 | 3.0 | 9.0 | 0.00 | 0.00 | 0.00 | 54 | 1015.6 |
| 20260508143520 | 61 | 220 | 3.0 | 13.0 | 0.00 | 0.00 | 0.00 | 52 | 1015.6 |
| 20260508143000 | 60 | 226 | 3.0 | 13.0 | 0.00 | 0.00 | 0.00 | 54 | 1015.6 |
| 20260508142459 | 60 | 225 | 3.0 | 11.0 | 0.00 | 0.00 | 0.00 | 56 | 1015.7 |
| 20260508142000 | 60 | 207 | 3.0 | 11.0 | 0.00 | 0.00 | 0.00 | 53 | 1015.8 |
| 20260508141459 | 59 | 218 | 3.0 | 11.0 | 0.00 | 0.00 | 0.00 | 54 | 1015.9 |
| 20260508141000 | 59 | 219 | 4.0 | 10.0 | 0.00 | 0.00 | 0.00 | 54 | 1015.9 |
| 20260508140459 | 59 | 229 | 3.0 | 10.0 | 0.00 | 0.00 | 0.00 | 54 | 1015.9 |
| 20260508135959 | 58 | 233 | 3.0 | 10.0 | 0.00 | 0.00 | 0.00 | 55 | 1015.9 |
| 20260508135500 | 58 | 228 | 3.0 | 10.0 | 0.00 | 0.00 | 0.00 | 56 | 1016.1 |
| 20260508134959 | 58 | 238 | 3.0 | 10.0 | 0.00 | 0.00 | 0.00 | 56 | 1016.0 |
| 20260508134459 | 57 | 222 | 3.0 | 13.0 | 0.00 | 0.00 | 0.00 | 56 | 1016.0 |
| 20260508134020 | 57 | 207 | 3.0 | 13.0 | 0.00 | 0.00 | 0.00 | 54 | 1016.0 |
| 20260508133500 | 57 | 216 | 3.0 | 14.0 | 0.00 | 0.00 | 0.00 | 54 | 1016.0 |
| 20260508133000 | 57 | 224 | 2.0 | 14.0 | 0.00 | 0.00 | 0.00 | 54 | 1016.0 |
| 20260508132459 | 57 | 214 | 2.0 | 7.0 | 0.00 | 0.00 | 0.00 | 57 | 1015.9 |
| 20260508132000 | 57 | 212 | 3.0 | 9.0 | 0.00 | 0.00 | 0.00 | 56 | 1016.0 |
| 20260508131520 | 56 | 201 | 3.0 | 9.0 | 0.00 | 0.00 | 0.00 | 56 | 1016.0 |
| 20260508131000 | 56 | 206 | 3.0 | 11.0 | 0.00 | 0.00 | 0.00 | 57 | 1016.0 |
| 20260508130459 | 56 | 224 | 3.0 | 11.0 | 0.00 | 0.00 | 0.00 | 57 | 1015.9 |
| 20260508130000 | 55 | 223 | 2.0 | 7.0 | 0.00 | 0.00 | 0.00 | 58 | 1016.0 |
| 20260508125459 | 55 | 217 | 3.0 | 7.0 | 0.00 | 0.00 | 0.00 | 58 | 1016.1 |
| 20260508124959 | 54 | 188 | 2.0 | 11.0 | 0.00 | 0.00 | 0.00 | 58 | 1015.9 |
| 20260508124500 | 54 | 171 | 2.0 | 11.0 | 0.00 | 0.00 | 0.00 | 59 | 1015.9 |
| 20260508124000 | 54 | 185 | 2.0 | 7.0 | 0.00 | 0.00 | 0.00 | 59 | 1015.9 |
| 20260508123500 | 53 | 198 | 2.0 | 7.0 | 0.00 | 0.00 | 0.00 | 59 | 1015.9 |
| 20260508123000 | 53 | 200 | 2.0 | 11.0 | 0.00 | 0.00 | 0.00 | 62 | 1015.8 |
| 20260508122459 | 52 | 198 | 2.0 | 11.0 | 0.00 | 0.00 | 0.00 | 60 | 1015.7 |
| 20260508122000 | 52 | 219 | 1.0 | 4.0 | 0.00 | 0.00 | 0.00 | 63 | 1015.8 |
| 20260508121459 | 52 | 211 | 1.0 | 4.0 | 0.00 | 0.00 | 0.00 | 62 | 1015.8 |
| 20260508121000 | 51 | 219 | 1.0 | 6.0 | 0.00 | 0.00 | 0.00 | 63 | 1015.8 |
| 20260508120459 | 51 | 229 | 2.0 | 6.0 | 0.00 | 0.00 | 0.00 | 64 | 1015.8 |
| 20260508120000 | 50 | 220 | 1.0 | 5.0 | 0.00 | 0.00 | 0.00 | 65 | 1015.8 |
| 20260508115459 | 50 | 226 | 1.0 | 2.0 | 0.00 | 0.00 | 0.00 | 66 | 1015.7 |
| 20260508115000 | 49 | 233 | 1.0 | 3.0 | 0.00 | 0.00 | 0.00 | 67 | 1015.7 |
| 20260508114459 | 49 | 220 | 0.0 | 3.0 | 0.00 | 0.00 | 0.00 | 66 | 1015.7 |
| 20260508114000 | 49 | 154 | 0.0 | 1.0 | 0.00 | 0.00 | 0.00 | 66 | 1015.7 |
| 20260508113500 | 49 | 155 | 0.0 | 2.0 | 0.00 | 0.00 | 0.00 | 66 | 1015.6 |
| 20260508113020 | 50 | 237 | 1.0 | 4.0 | 0.00 | 0.00 | 0.00 | 65 | 1015.6 |
| 20260508112500 | 50 | 266 | 1.0 | 4.0 | 0.00 | 0.00 | 0.00 | 64 | 1015.5 |
| 20260508112000 | 50 | 262 | 1.0 | 3.0 | 0.00 | 0.00 | 0.00 | 64 | 1015.4 |
| 20260508111459 | 50 | 229 | 1.0 | 3.0 | 0.00 | 0.00 | 0.00 | 63 | 1015.5 |
| 20260508111000 | 50 | 226 | 1.0 | 4.0 | 0.00 | 0.00 | 0.00 | 64 | 1015.4 |
| 20260508110500 | 50 | 234 | 1.0 | 4.0 | 0.00 | 0.00 | 0.00 | 64 | 1015.3 |
| 20260508105959 | 50 | 242 | 1.0 | 6.0 | 0.00 | 0.00 | 0.00 | 65 | 1015.3 |
| 20260508105500 | 50 | 244 | 1.0 | 6.0 | 0.00 | 0.00 | 0.00 | 64 | 1015.2 |
| 20260508105021 | 50 | 256 | 1.0 | 5.0 | 0.00 | 0.00 | 0.00 | 65 | 1015.2 |
| 20260508104500 | 49 | 253 | 0.0 | 5.0 | 0.00 | 0.00 | 0.00 | 64 | 1015.2 |
| 20260508103959 | 49 | 248 | 1.0 | 4.0 | 0.00 | 0.00 | 0.00 | 65 | 1015.3 |
| 20260508103500 | 49 | 239 | 1.0 | 4.0 | 0.00 | 0.00 | 0.00 | 65 | 1015.4 |
| 20260508103021 | 49 | 227 | 0.0 | 4.0 | 0.00 | 0.00 | 0.00 | 66 | 1015.3 |
| 20260508102521 | 49 | 220 | 1.0 | 4.0 | 0.00 | 0.00 | 0.00 | 67 | 1015.3 |
| 20260508102000 | 49 | 222 | 1.0 | 2.0 | 0.00 | 0.00 | 0.00 | 67 | 1015.2 |
| 20260508101459 | 49 | 232 | 0.0 | 2.0 | 0.00 | 0.00 | 0.00 | 67 | 1015.2 |
| 20260508101000 | 49 | 251 | 0.0 | 2.0 | 0.00 | 0.00 | 0.00 | 68 | 1015.3 |
| 20260508100500 | 49 | 253 | 1.0 | 3.0 | 0.00 | 0.00 | 0.00 | 66 | 1015.3 |
| 20260508095959 | 49 | 245 | 1.0 | 3.0 | 0.00 | 0.00 | 0.00 | 67 | 1015.3 |
| 20260508095500 | 48 | 249 | 0.0 | 2.0 | 0.00 | 0.00 | 0.00 | 68 | 1015.3 |
| 20260508095000 | 48 | 255 | 0.0 | 2.0 | 0.00 | 0.00 | 0.00 | 67 | 1015.3 |
| 20260508094500 | 48 | 250 | 0.0 | 2.0 | 0.00 | 0.00 | 0.00 | 68 | 1015.3 |
| 20260508094000 | 48 | 246 | 1.0 | 4.0 | 0.00 | 0.00 | 0.00 | 67 | 1015.3 |
| 20260508093500 | 48 | 243 | 1.0 | 4.0 | 0.00 | 0.00 | 0.00 | 68 | 1015.3 |
| 20260508092959 | 48 | 236 | 1.0 | 4.0 | 0.00 | 0.00 | 0.00 | 68 | 1015.3 |
| 20260508092459 | 48 | 235 | 1.0 | 4.0 | 0.00 | 0.00 | 0.00 | 68 | 1015.3 |
| 20260508091959 | 47 | 239 | 0.0 | 2.0 | 0.00 | 0.00 | 0.00 | 69 | 1015.2 |
| 20260508091459 | 47 | 238 | 0.0 | 2.0 | 0.00 | 0.00 | 0.00 | 69 | 1015.3 |
| 20260508091021 | 47 | 242 | 0.0 | 2.0 | 0.00 | 0.00 | 0.00 | 70 | 1015.3 |
| 20260508090521 | 47 | 247 | 1.0 | 3.0 | 0.00 | 0.00 | 0.00 | 70 | 1015.4 |
| 20260508085959 | 46 | 258 | 0.0 | 3.0 | 0.00 | 0.00 | 0.00 | 71 | 1015.4 |
| 20260508085500 | 46 | 277 | 0.0 | 2.0 | 0.00 | 0.00 | 0.00 | 72 | 1015.4 |
| 20260508085021 | 45 | 289 | 0.0 | 2.0 | 0.00 | 0.00 | 0.00 | 74 | 1015.4 |
| 20260508084500 | 45 | 290 | 0.0 | 2.0 | 0.00 | 0.00 | 0.00 | 74 | 1015.3 |
| 20260508083959 | 44 | 290 | 0.0 | 1.0 | 0.00 | 0.00 | 0.00 | 75 | 1015.2 |
| 20260508083500 | 44 | 290 | 0.0 | 1.0 | 0.00 | 0.00 | 0.00 | 76 | 1015.2 |
| 20260508083000 | 44 | 290 | 0.0 | 1.0 | 0.00 | 0.00 | 0.00 | 76 | 1015.3 |
| 20260508082500 | 44 | 290 | 0.0 | 1.0 | 0.00 | 0.00 | 0.00 | 75 | 1015.3 |
| 20260508081959 | 45 | 290 | 0.0 | 1.0 | 0.00 | 0.00 | 0.00 | 75 | 1015.2 |
| 20260508081459 | 45 | 290 | 0.0 | 1.0 | 0.00 | 0.00 | 0.00 | 75 | 1015.3 |
| 20260508080959 | 45 | 290 | 0.0 | 1.0 | 0.00 | 0.00 | 0.00 | 75 | 1015.2 |
| 20260508080459 | 45 | 290 | 0.0 | 2.0 | 0.00 | 0.00 | 0.00 | 74 | 1015.3 |
| 20260508080021 | 45 | 290 | 0.0 | 2.0 | 0.00 | 0.00 | 0.00 | 75 | 1015.3 |
| 20260508075521 | 45 | 290 | 0.0 | 1.0 | 0.00 | 0.00 | 0.00 | 75 | 1015.2 |
| 20260508074959 | 45 | 289 | 0.0 | 1.0 | 0.00 | 0.00 | 0.00 | 74 | 1015.3 |
| 20260508074501 | 45 | 280 | 0.0 | 2.0 | 0.00 | 0.00 | 0.00 | 74 | 1015.3 |
| 20260508074000 | 45 | 276 | 0.0 | 2.0 | 0.00 | 0.00 | 0.00 | 73 | 1015.3 |
| 20260508073521 | 45 | 277 | 0.0 | 1.0 | 0.00 | 0.00 | 0.00 | 73 | 1015.2 |
| 20260508072959 | 45 | 277 | 0.0 | 1.0 | 0.00 | 0.00 | 0.00 | 73 | 1015.2 |
| 20260508072500 | 46 | 277 | 0.0 | 1.0 | 0.00 | 0.00 | 0.00 | 71 | 1015.2 |
| 20260508072021 | 46 | 277 | 0.0 | 1.0 | 0.00 | 0.00 | 0.00 | 71 | 1015.2 |
| 20260508071500 | 46 | 277 | 0.0 | 1.0 | 0.00 | 0.00 | 0.00 | 72 | 1015.4 |
| 20260508071020 | 46 | 277 | 0.0 | 1.0 | 0.00 | 0.00 | 0.00 | 71 | 1015.4 |
| 20260508070500 | 46 | 277 | 0.0 | 1.0 | 0.00 | 0.00 | 0.00 | 71 | 1015.4 |
| 20260508070000 | 46 | 277 | 0.0 | 1.0 | 0.00 | 0.00 | 0.00 | 70 | 1015.5 |
| 20260508065521 | 46 | 277 | 0.0 | 1.0 | 0.00 | 0.00 | 0.00 | 70 | 1015.5 |
| 20260508065000 | 47 | 278 | 0.0 | 1.0 | 0.00 | 0.00 | 0.00 | 70 | 1015.5 |
| 20260508064500 | 47 | 278 | 0.0 | 2.0 | 0.00 | 0.00 | 0.00 | 68 | 1015.5 |
| 20260508064000 | 47 | 278 | 0.0 | 2.0 | 0.00 | 0.00 | 0.00 | 68 | 1015.6 |
| 20260508063500 | 47 | 278 | 0.0 | 1.0 | 0.00 | 0.00 | 0.00 | 68 | 1015.7 |
| 20260508063000 | 47 | 278 | 0.0 | 1.0 | 0.00 | 0.00 | 0.00 | 68 | 1015.8 |
| 20260508062500 | 47 | 278 | 0.0 | 1.0 | 0.00 | 0.00 | 0.00 | 67 | 1015.8 |
| 20260508062021 | 47 | 284 | 0.0 | 2.0 | 0.00 | 0.00 | 0.00 | 68 | 1015.9 |
| 20260508061500 | 47 | 288 | 0.0 | 2.0 | 0.00 | 0.00 | 0.00 | 66 | 1016.0 |
| 20260508060959 | 47 | 290 | 0.0 | 2.0 | 0.00 | 0.00 | 0.00 | 67 | 1016.0 |
| 20260508060500 | 47 | 290 | 0.0 | 1.0 | 0.00 | 0.00 | 0.00 | 67 | 1016.0 |
| 20260508060000 | 47 | 290 | 0.0 | 1.0 | 0.00 | 0.00 | 0.00 | 67 | 1016.0 |
| 20260508055500 | 47 | 290 | 0.0 | 2.0 | 0.00 | 0.00 | 0.00 | 66 | 1016.0 |
| 20260508055000 | 47 | 290 | 0.0 | 2.0 | 0.00 | 0.00 | 0.00 | 66 | 1016.0 |
| 20260508054521 | 48 | 290 | 0.0 | 2.0 | 0.00 | 0.00 | 0.00 | 65 | 1015.9 |
| 20260508053959 | 48 | 291 | 0.0 | 1.0 | 0.00 | 0.00 | 0.00 | 64 | 1015.9 |
| 20260508053500 | 48 | 286 | 0.0 | 3.0 | 0.00 | 0.00 | 0.00 | 64 | 1015.9 |
| 20260508053000 | 48 | 249 | 0.0 | 3.0 | 0.00 | 0.00 | 0.00 | 65 | 1016.0 |
| 20260508052500 | 48 | 229 | 0.0 | 3.0 | 0.00 | 0.00 | 0.00 | 64 | 1016.0 |
| 20260508052000 | 48 | 221 | 0.0 | 2.0 | 0.00 | 0.00 | 0.00 | 65 | 1016.0 |
| 20260508051521 | 48 | 221 | 0.0 | 1.0 | 0.00 | 0.00 | 0.00 | 67 | 1016.0 |
| 20260508051000 | 48 | 204 | 0.0 | 2.0 | 0.00 | 0.00 | 0.00 | 66 | 1015.9 |
| 20260508050500 | 48 | 199 | 0.0 | 2.0 | 0.00 | 0.00 | 0.00 | 66 | 1015.9 |
| 20260508050000 | 49 | 194 | 0.0 | 1.0 | 0.00 | 0.00 | 0.00 | 66 | 1015.9 |
| 20260508045500 | 49 | 194 | 0.0 | 2.0 | 0.00 | 0.00 | 0.00 | 65 | 1015.8 |
| 20260508045000 | 49 | 194 | 0.0 | 2.0 | 0.00 | 0.00 | 0.00 | 64 | 1015.7 |
| 20260508044500 | 50 | 193 | 0.0 | 1.0 | 0.00 | 0.00 | 0.00 | 62 | 1015.8 |
| 20260508044000 | 50 | 189 | 0.0 | 1.0 | 0.00 | 0.00 | 0.00 | 59 | 1015.9 |
| 20260508043500 | 50 | 152 | 0.0 | 2.0 | 0.00 | 0.00 | 0.00 | 60 | 1015.9 |
| 20260508043000 | 51 | 160 | 0.0 | 2.0 | 0.00 | 0.00 | 0.00 | 57 | 1015.9 |
| 20260508042500 | 51 | 192 | 0.0 | 2.0 | 0.00 | 0.00 | 0.00 | 57 | 1015.8 |
| 20260508042000 | 51 | 205 | 0.0 | 2.0 | 0.00 | 0.00 | 0.00 | 56 | 1015.9 |
| 20260508041500 | 51 | 249 | 0.0 | 2.0 | 0.00 | 0.00 | 0.00 | 57 | 1015.8 |
| 20260508041000 | 51 | 262 | 1.0 | 4.0 | 0.00 | 0.00 | 0.00 | 57 | 1015.8 |
| 20260508040500 | 50 | 238 | 1.0 | 4.0 | 0.00 | 0.00 | 0.00 | 58 | 1015.8 |
| 20260508040021 | 50 | 158 | 0.0 | 2.0 | 0.00 | 0.00 | 0.00 | 60 | 1015.7 |
| 20260508035500 | 50 | 141 | 0.0 | 2.0 | 0.00 | 0.00 | 0.00 | 60 | 1015.6 |
| 20260508035000 | 49 | 152 | 0.0 | 3.0 | 0.00 | 0.00 | 0.00 | 62 | 1015.6 |
| 20260508034500 | 49 | 175 | 0.0 | 3.0 | 0.00 | 0.00 | 0.00 | 63 | 1015.6 |
| 20260508034000 | 48 | 249 | 0.0 | 2.0 | 0.00 | 0.00 | 0.00 | 64 | 1015.7 |
| 20260508033500 | 48 | 249 | 0.0 | 2.0 | 0.00 | 0.00 | 0.00 | 64 | 1015.7 |
| 20260508033000 | 48 | 250 | 0.0 | 2.0 | 0.00 | 0.00 | 0.00 | 66 | 1015.8 |
| 20260508032500 | 47 | 253 | 0.0 | 2.0 | 0.00 | 0.00 | 0.00 | 69 | 1015.9 |
| 20260508032000 | 47 | 258 | 0.0 | 1.0 | 0.00 | 0.00 | 0.00 | 70 | 1015.8 |
| 20260508031500 | 47 | 258 | 0.0 | 1.0 | 0.00 | 0.00 | 0.00 | 69 | 1015.8 |
| 20260508031000 | 47 | 258 | 0.0 | 1.0 | 0.00 | 0.00 | 0.00 | 68 | 1015.8 |
| 20260508030500 | 47 | 258 | 0.0 | 1.0 | 0.00 | 0.00 | 0.00 | 70 | 1015.8 |
| 20260508030000 | 47 | 258 | 0.0 | 1.0 | 0.00 | 0.00 | 0.00 | 69 | 1015.7 |
| 20260508025500 | 47 | 258 | 0.0 | 1.0 | 0.00 | 0.00 | 0.00 | 67 | 1015.7 |
| 20260508025000 | 47 | 258 | 0.0 | 1.0 | 0.00 | 0.00 | 0.00 | 71 | 1015.6 |
| 20260508024500 | 47 | 258 | 0.0 | 1.0 | 0.00 | 0.00 | 0.00 | 72 | 1015.7 |